Weather History for KAIA - October, 2014

Change the Weather History Date:

Friday, October 24, 2014

  Actual Average Record
Temperature  
Mean Temperature 57 °F 43 °F  
Max Temperature 80 °F 59 °F 82 °F (1939)
Min Temperature 34 °F 27 °F 10 °F (1926)
Degree Days  
Heating Degree Days 8 22  
Month to date heating degree days 331 430  
Since 1 July heating degree days 519 675  
Cooling Degree Days 0 0  
Month to date cooling degree days 0 0  
Year to date cooling degree days 499 563  
Growing Degree Days 8 (Base 50)    
Moisture  
Dew Point 35 °F    
Average Humidity 55    
Maximum Humidity 89    
Minimum Humidity 20    
Precipitation  
Precipitation 0.00 in 0.03 in 0.26 in (1957)
Month to date precipitation 0.15 0.98  
Year to date precipitation 17.42 14.78  
Sea Level Pressure  
Sea Level Pressure 29.99 in    
Wind  
Wind Speed 9 mph (WNW)    
Max Wind Speed 21 mph    
Max Gust Speed 26 mph    
Visibility 10 miles    
Events      
T = Trace of Precipitation, MM = Missing Value Source: NWS Daily Summary

Daily Weather History Graph

Daily Weather History Graph

Search for Another Location

Airport or City:

Trip Planner

Search our weather history database for the weather conditions in past years. The results will help you decide how hot, cold, wet, or windy it might be!

Date:

Astronomy

Oct. 24, 2014 Rise Set
Actual Time 7:14 AM MDT 5:55 PM MDT
Civil Twilight 6:45 AM MDT 6:24 PM MDT
Nautical Twilight 6:13 AM MDT 6:56 PM MDT
Astronomical Twilight 5:40 AM MDT 7:29 PM MDT
Moon 7:56 AM MDT (10/24) 6:36 PM MDT (10/24)
Length of Visible Light 11h 38m
Length of Day
10h 41m
New Moon, 1% of the Moon is Illuminated
Oct 24
New Moon
Oct 30
First Quarter
Nov 6
Full
Nov 14
Last Quarter
Nov 22
New

Hourly Weather History & Observations

Time (MDT) Temp. Windchill Dew Point Humidity Pressure Visibility Wind Dir Wind Speed Gust Speed Precip Events Conditions
12:53 AM 39.9 °F - 32.0 °F 73% 29.94 in 10.0 mi Calm Calm - N/A   Clear
1:53 AM 45.0 °F - 32.0 °F 60% 29.93 in 10.0 mi Calm Calm - N/A   Clear
2:53 AM 39.2 °F 34.2 °F 32.0 °F 75% 29.99 in 10.0 mi West 6.9 mph - N/A   Clear
3:53 AM 39.9 °F 33.9 °F 32.0 °F 73% 29.92 in 10.0 mi West 9.2 mph - N/A   Clear
4:53 AM 43.0 °F 38.8 °F 32.0 °F 65% 29.95 in 10.0 mi West 6.9 mph - N/A   Clear
5:53 AM 46.0 °F 40.6 °F 32.0 °F 58% 29.96 in 10.0 mi West 11.5 mph - N/A   Clear
6:53 AM 44.1 °F 39.5 °F 35.1 °F 71% 30.00 in 10.0 mi West 8.1 mph - N/A   Clear
7:53 AM 50.0 °F - 36.0 °F 59% 30.01 in 10.0 mi West 10.4 mph - N/A   Clear
8:53 AM 53.1 °F - 37.9 °F 57% 30.03 in 10.0 mi West 12.7 mph - N/A   Clear
9:53 AM 63.0 °F - 39.0 °F 41% 30.01 in 10.0 mi West 13.8 mph - N/A   Clear
10:53 AM 72.0 °F - 37.9 °F 29% 30.00 in 10.0 mi WNW 16.1 mph - N/A   Clear
11:53 AM 75.2 °F - 37.4 °F 25% 30.06 in 10.0 mi WNW 15.0 mph - N/A   Clear
12:53 PM 78.1 °F - 36.0 °F 22% 29.97 in 10.0 mi West 15.0 mph 21.9 mph N/A   Clear
1:53 PM 80.1 °F - 37.0 °F 21% 29.93 in 10.0 mi West 9.2 mph - N/A   Clear
2:53 PM 80.1 °F - 35.1 °F 20% 29.94 in 10.0 mi WNW 15.0 mph - N/A   Clear
3:53 PM 80.1 °F - 35.1 °F 20% 29.94 in 10.0 mi West 11.5 mph - N/A   Clear
4:53 PM 78.1 °F - 37.0 °F 23% 29.94 in 10.0 mi North 4.6 mph - N/A   Clear
5:53 PM 66.0 °F - 37.0 °F 34% 29.97 in 10.0 mi East 6.9 mph - N/A   Clear
6:53 PM 57.0 °F - 36.0 °F 45% 30.01 in 10.0 mi ENE 3.5 mph - N/A   Clear
7:53 PM 50.0 °F - 36.0 °F 59% 30.04 in 10.0 mi ESE 4.6 mph - N/A   Clear
8:53 PM 45.0 °F 42.6 °F 35.1 °F 68% 30.06 in 10.0 mi North 4.6 mph - N/A   Clear
9:53 PM 39.9 °F - 34.0 °F 79% 30.06 in 10.0 mi Calm Calm - N/A   Clear
10:53 PM 37.0 °F 31.6 °F 33.1 °F 86% 30.06 in 10.0 mi West 6.9 mph - N/A   Clear
11:53 PM 36.0 °F 30.3 °F 32.0 °F 86% 30.07 in 10.0 mi West 6.9 mph - N/A   Clear